[[{"header":{"parameterUnit":"m.s-1","parameterCategory":1,"la1":30.2991,"la2":30.254,"lo1":-89.0895,"lo2":-89.0444,"dx":0.0017,"dy":0.0017,"nx":28,"ny":28,"refTime":"2023-02-12T09:00:00:Z","depth":0,"parameterNumber":2,"parameterNumberName":"U-component_of_WINDS"},"data":[0,0,0,0,0,0,0,0,0,0,0,0,0,0,0,0,0,0,0,0,0,0,0,0,0,0,0,0,0,0,0,0,0,0,0,0,0,0,0,0,0,0,0,0,0,0,0,0,0,0,0,0,0,0,0,0,0,0,5.077,5.0771,0,5.0857,5.0858,5.0859,5.0802,5.0799,5.0797,5.0794,5.0886,5.0891,5.0895,0,0,0,0,0,0,0,0,0,0,0,0,0,5.0557,5.0562,5.077,5.0771,5.0772,5.0857,5.0858,5.086,5.0802,5.0799,5.0796,5.0793,5.0884,5.089,5.0896,0,0,0,0,0,0,0,0,0,0,0,0,0,5.0648,5.0563,5.077,5.0754,5.0753,5.0857,5.0858,5.086,5.0803,5.0799,5.0795,5.0791,5.0882,5.0889,5.0897,5.1022,0,0,5.0919,5.0922,0,0,0,0,0,0,0,0,5.0643,5.0656,5.0755,5.0755,5.0755,5.0815,5.0817,5.0914,5.0804,5.0784,5.0794,5.0789,5.0865,5.0874,5.0899,5.1026,5.103,5.092,5.0924,5.0927,5.093,0,0,0,0,0,0,0,5.0637,5.0652,5.0804,5.0756,5.0756,5.0744,5.0752,5.0835,5.0846,5.0786,5.0782,5.0793,5.0865,5.0892,5.0901,5.1031,5.092,5.0926,5.0931,5.0934,5.1269,5.1273,0,0,0,0,0,0,5.0631,5.0647,5.0802,5.0807,5.0688,5.0751,5.076,5.0799,5.0845,5.0848,5.0796,5.079,5.0882,5.0892,5.0904,5.1056,5.0927,5.0934,5.0939,5.1264,5.127,5.1275,0,0,0,0,0,0,5.0627,5.0646,5.0798,5.0726,5.0744,5.0758,5.0803,5.0803,5.0831,5.0853,5.0855,5.0822,5.0879,5.0894,5.0993,5.1058,5.0938,5.0944,5.1259,5.1266,5.1272,5.1359,0,0,0,0,0,0,5.0621,5.0644,5.0691,5.0727,5.0748,5.0885,5.0807,5.0808,5.0843,5.0836,5.0878,5.0881,5.0877,5.0983,5.1001,5.1066,5.095,5.1253,5.1262,5.127,5.135,5.1368,5.1383,0,0,0,0,0,5.0614,5.0711,5.0693,5.0712,5.0807,5.0889,5.0901,5.0894,5.0849,5.0897,5.0911,5.0879,5.1048,5.0994,5.1013,5.1082,5.1249,5.126,5.1269,5.1343,5.1364,5.1382,0,0,0,0,0,0,5.0682,5.0716,5.0696,5.0809,5.0847,5.0879,5.0939,5.0916,5.0968,5.0959,5.0949,5.0959,5.1064,5.1082,5.1021,5.1207,5.1142,5.1156,5.1191,5.1211,5.1227,5.1221,5.0956,0,0,0,0,0,5.071,5.0773,5.08,5.0896,5.0916,5.0925,5.096,5.0952,5.0991,5.1007,5.1028,5.1068,5.1131,5.1172,5.123,5.1353,5.1363,5.141,5.1426,5.1439,5.1452,5.1522,5.1544,5.1308,5.1308,5.1307,0,0,5.0769,5.0795,5.0836,5.0911,5.0939,5.1007,5.0939,5.1012,5.1062,5.1018,5.1114,5.1132,5.1176,5.1289,5.134,5.1308,5.152,5.1452,5.1462,5.1468,5.1535,5.1557,5.1577,5.1315,5.1313,5.1312,0,0,5.0911,5.0936,5.1021,5.1051,5.1095,5.1101,5.1121,5.1158,5.1168,5.1265,5.1234,5.1294,5.14,5.1434,5.1465,5.1623,5.1597,5.1643,5.1728,5.1796,5.1814,5.1831,5.189,5.1911,5.1655,5.1656,5.1656,0,5.0979,5.1078,5.1068,5.1145,5.118,5.1143,5.123,5.126,5.1321,5.1347,5.131,5.1445,5.1472,5.1594,5.1633,5.1658,5.1683,5.1638,5.1812,5.1829,5.1844,5.19,5.1922,5.1661,5.166,5.166,5.1659,0,5.1161,5.1231,5.1294,5.1355,5.1397,5.1478,5.1482,5.1526,5.1515,5.1524,5.1625,5.1656,5.1721,5.1749,5.1738,5.1871,5.185,5.1813,5.1747,5.1872,5.1925,5.1946,5.1669,5.1667,5.1665,5.1664,0,0,5.1349,5.1403,5.1427,5.1455,5.1502,5.1557,5.1638,5.1701,5.1741,5.1785,5.1854,5.1946,5.1913,5.1949,5.1941,5.2001,5.2128,5.1957,5.1958,5.199,5.228,5.2309,5.2334,5.211,5.2114,5.2118,5.2277,0,5.1495,5.1636,5.163,5.1762,5.1828,5.1795,5.1866,5.1904,5.1916,5.1975,5.1988,5.2055,5.2004,5.2026,5.2083,5.21,5.2186,5.2088,5.2177,5.2181,5.2169,5.2361,5.2391,5.254,5.2297,5.23,5.2303,0,5.1685,5.1736,5.1875,5.1915,5.1942,5.2006,5.2066,5.2122,5.2165,5.2169,5.221,5.2194,5.2279,5.221,5.2328,5.2262,5.2298,5.2312,5.2318,5.2327,5.2251,5.2378,5.2587,5.261,5.2335,5.2332,5.233,0,5.1812,5.1915,5.2012,5.2037,5.2085,5.2131,5.2154,5.2192,5.2232,5.2285,5.2311,5.2372,5.2407,5.2456,5.2458,5.2407,5.2578,5.2509,5.2587,5.2587,5.2625,5.2623,5.2845,5.2645,5.2645,5.2644,5.2644,0,5.1977,5.2064,5.207,5.213,5.2227,5.2221,5.2318,5.2336,5.2371,5.2436,5.241,5.2472,5.247,5.2533,5.2535,5.2634,5.2649,5.2657,5.2657,5.266,5.266,5.2685,5.2676,5.265,5.2649,5.2648,5.2647,0,5.2135,5.2142,5.2246,5.2284,5.2295,5.2366,5.2399,5.2457,5.2467,5.255,5.2568,5.2585,5.2658,5.2665,5.2749,5.2751,5.2872,5.2859,5.2857,5.2856,5.2934,5.2928,5.3182,5.3216,5.2992,5.2994,5.2996,0,5.2242,5.2308,5.2353,5.2394,5.242,5.2486,5.2527,5.2523,5.2567,5.2623,5.2675,5.2746,5.2802,5.2921,5.2942,5.3007,5.2998,5.3082,5.3007,5.301,5.3002,5.2999,5.3007,5.3097,5.31,5.3102,5.3103,0,5.2431,5.2432,5.2491,5.2553,5.2602,5.265,5.2695,5.2731,5.2733,5.2784,5.2859,5.2903,5.299,5.3062,5.3126,5.3151,5.313,5.3127,5.3149,5.3154,5.3152,5.3157,5.29,5.3121,5.3119,5.3118,5.3117,5.3116,5.2568,5.2627,5.2669,5.2736,5.277,5.2814,5.2871,5.2889,5.2951,5.3021,5.3015,5.3099,5.3143,5.3227,5.3257,5.3324,5.3295,5.3326,5.3335,5.3343,5.3353,5.3139,5.3335,5.3335,5.3334,5.3334,5.3333,0,5.2759,5.2784,5.2846,5.2911,5.2965,5.2939,5.2988,5.3036,5.3109,5.3151,5.3208,5.3295,5.3365,5.3392,5.346,5.3509,5.3501,5.3527,5.3525,5.3532,5.3372,5.3348,5.3533,5.3533,5.3533,5.3533,5.3533,5.3533,5.2864,5.2963,5.2969,5.3085,5.311,5.3192,5.3223,5.3263,5.3298,5.3396,5.3454,5.347,5.3508,5.3579,5.3643,5.3649,5.3677,5.3709,5.3711,5.3562,5.3542,5.3523,5.35,5.3714,5.3714,5.3865,5.3866,5.3867]},{"header":{"parameterUnit":"m.s-1","parameterCategory":1,"la1":30.2991,"la2":30.254,"lo1":-89.0895,"lo2":-89.0444,"dx":0.0017,"dy":0.0017,"nx":28,"ny":28,"refTime":"2023-02-12T09:00:00:Z","depth":0,"parameterNumber":3,"parameterNumberName":"V-component_of_WINDS"},"data":[0,0,0,0,0,0,0,0,0,0,0,0,0,0,0,0,0,0,0,0,0,0,0,0,0,0,0,0,0,0,0,0,0,0,0,0,0,0,0,0,0,0,0,0,0,0,0,0,0,0,0,0,0,0,0,0,0,0,-3.0383,-3.0384,0,-3.0488,-3.049,-3.0491,-3.0559,-3.0559,-3.0559,-3.056,-3.0665,-3.0667,-3.0669,0,0,0,0,0,0,0,0,0,0,0,0,0,-3.0237,-3.024,-3.0382,-3.0384,-3.0385,-3.0488,-3.049,-3.0491,-3.0559,-3.0559,-3.056,-3.056,-3.0664,-3.0667,-3.067,0,0,0,0,0,0,0,0,0,0,0,0,0,-3.0317,-3.0241,-3.0382,-3.0431,-3.0437,-3.0488,-3.049,-3.0491,-3.0558,-3.0559,-3.056,-3.056,-3.0663,-3.0666,-3.067,-3.0679,0,0,-3.0681,-3.0682,0,0,0,0,0,0,0,0,-3.0313,-3.0323,-3.0423,-3.0428,-3.0434,-3.0511,-3.0477,-3.0554,-3.0558,-3.0512,-3.056,-3.0561,-3.0613,-3.062,-3.0639,-3.0684,-3.0689,-3.0681,-3.0683,-3.0685,-3.0686,0,0,0,0,0,0,0,-3.0307,-3.0318,-3.0424,-3.0424,-3.0431,-3.0448,-3.046,-3.0492,-3.0557,-3.0516,-3.0521,-3.0533,-3.0616,-3.0635,-3.0642,-3.069,-3.0681,-3.0684,-3.0687,-3.0688,-3.0752,-3.0752,0,0,0,0,0,0,-3.0294,-3.0313,-3.0421,-3.0427,-3.0374,-3.045,-3.0463,-3.0486,-3.0557,-3.0569,-3.0532,-3.0536,-3.0629,-3.0638,-3.0646,-3.0664,-3.0685,-3.0688,-3.069,-3.0752,-3.0752,-3.0751,0,0,0,0,0,0,-3.0291,-3.0303,-3.0417,-3.0372,-3.0388,-3.0452,-3.0476,-3.0487,-3.0507,-3.057,-3.0581,-3.054,-3.063,-3.0641,-3.0672,-3.0668,-3.069,-3.0693,-3.0753,-3.0752,-3.0752,-3.0698,0,0,0,0,0,0,-3.0286,-3.0302,-3.0306,-3.0372,-3.039,-3.0441,-3.0476,-3.0489,-3.0513,-3.0519,-3.058,-3.0591,-3.0631,-3.0666,-3.0675,-3.0673,-3.0696,-3.0754,-3.0753,-3.0752,-3.07,-3.0695,-3.0691,0,0,0,0,0,-3.0281,-3.0285,-3.0306,-3.0318,-3.0397,-3.044,-3.0451,-3.0498,-3.0513,-3.0518,-3.0559,-3.0589,-3.0667,-3.0668,-3.0679,-3.0679,-3.0754,-3.0753,-3.0752,-3.0702,-3.0696,-3.0691,0,0,0,0,0,0,-3.0215,-3.0294,-3.0318,-3.0344,-3.0385,-3.0452,-3.0459,-3.049,-3.0527,-3.053,-3.0586,-3.0599,-3.0625,-3.0655,-3.0655,-3.0693,-3.0714,-3.0715,-3.0673,-3.0668,-3.0663,-3.0655,-3.0699,0,0,0,0,0,-3.0204,-3.0234,-3.0301,-3.0317,-3.0337,-3.0394,-3.0415,-3.0448,-3.0493,-3.051,-3.0553,-3.0594,-3.0629,-3.065,-3.0684,-3.0705,-3.072,-3.071,-3.0706,-3.0702,-3.0702,-3.0718,-3.0715,-3.0748,-3.0748,-3.0748,0,0,-3.018,-3.0228,-3.0242,-3.0305,-3.0341,-3.037,-3.0408,-3.0437,-3.046,-3.0514,-3.0547,-3.058,-3.063,-3.0656,-3.067,-3.0682,-3.0697,-3.0701,-3.0697,-3.07,-3.0716,-3.0713,-3.071,-3.0747,-3.0748,-3.0748,0,0,-3.0153,-3.0191,-3.021,-3.0246,-3.0301,-3.034,-3.0344,-3.0407,-3.0432,-3.0466,-3.0508,-3.0535,-3.0592,-3.0627,-3.0652,-3.0641,-3.0671,-3.065,-3.0627,-3.0641,-3.0639,-3.0637,-3.0634,-3.0633,-3.0651,-3.065,-3.065,0,-3.0117,-3.0163,-3.0215,-3.0243,-3.027,-3.0323,-3.0343,-3.0375,-3.0437,-3.0454,-3.0467,-3.0542,-3.0579,-3.0616,-3.0614,-3.0631,-3.0639,-3.0643,-3.0635,-3.0634,-3.0633,-3.0631,-3.0629,-3.0648,-3.0648,-3.0648,-3.0649,0,-3.0117,-3.0149,-3.0157,-3.0219,-3.0247,-3.027,-3.0326,-3.0347,-3.0379,-3.0416,-3.0451,-3.0498,-3.0544,-3.0555,-3.0585,-3.0597,-3.0603,-3.0625,-3.0647,-3.0626,-3.0625,-3.0625,-3.0644,-3.0645,-3.0646,-3.0646,0,0,-3.0049,-3.0142,-3.0144,-3.0174,-3.0239,-3.0265,-3.0291,-3.0338,-3.0356,-3.0398,-3.0422,-3.0471,-3.0493,-3.0521,-3.0555,-3.0568,-3.0558,-3.0589,-3.0591,-3.0582,-3.0576,-3.056,-3.0558,-3.0579,-3.0579,-3.0579,-3.0572,0,-3.0032,-3.0083,-3.0132,-3.0166,-3.0197,-3.0249,-3.0272,-3.0315,-3.0351,-3.0382,-3.0422,-3.0456,-3.0481,-3.0499,-3.0514,-3.0556,-3.0558,-3.0557,-3.0602,-3.0603,-3.0588,-3.0558,-3.054,-3.0531,-3.0572,-3.0572,-3.0572,0,-3.0019,-3.0061,-3.0098,-3.0163,-3.0178,-3.0198,-3.0247,-3.0276,-3.0326,-3.0352,-3.0385,-3.0422,-3.0453,-3.0472,-3.0516,-3.0514,-3.0536,-3.0559,-3.056,-3.0566,-3.0586,-3.0563,-3.0529,-3.0528,-3.0572,-3.0572,-3.0572,0,-2.9968,-3.0033,-3.0065,-3.0088,-3.0165,-3.0178,-3.021,-3.0261,-3.0287,-3.0329,-3.0347,-3.0391,-3.0416,-3.0449,-3.0498,-3.0507,-3.0537,-3.056,-3.056,-3.0558,-3.0563,-3.0562,-3.0533,-3.0576,-3.0576,-3.0576,-3.0576,0,-2.9944,-2.9965,-3.0043,-3.0062,-3.0088,-3.0144,-3.0168,-3.0205,-3.025,-3.0278,-3.0324,-3.0349,-3.0412,-3.0444,-3.0482,-3.0513,-3.0523,-3.0545,-3.0555,-3.0542,-3.0539,-3.0556,-3.0558,-3.0576,-3.0576,-3.0576,-3.0576,0,-2.9891,-2.9944,-2.9982,-3.0052,-3.007,-3.0086,-3.0146,-3.0167,-3.0207,-3.0242,-3.0253,-3.0315,-3.0356,-3.0408,-3.0464,-3.049,-3.0518,-3.0532,-3.0501,-3.0507,-3.0505,-3.0504,-3.0485,-3.0487,-3.0527,-3.0527,-3.0526,0,-2.9872,-2.989,-2.9963,-2.9986,-3.0017,-3.0053,-3.008,-3.0137,-3.0164,-3.0224,-3.0238,-3.0283,-3.0322,-3.0384,-3.0434,-3.0478,-3.0495,-3.0486,-3.0502,-3.0488,-3.0497,-3.0495,-3.0498,-3.0481,-3.048,-3.048,-3.0479,0,-2.9834,-2.9861,-2.9899,-2.9948,-2.998,-3.0021,-3.0063,-3.0079,-3.0144,-3.0172,-3.0216,-3.0246,-3.0306,-3.035,-3.0401,-3.0434,-3.0468,-3.0474,-3.0477,-3.0463,-3.0445,-3.0456,-3.0491,-3.0474,-3.0475,-3.0475,-3.0475,-3.0476,-2.9799,-2.9818,-2.9873,-2.9916,-2.9954,-2.9994,-3.0018,-3.0062,-3.0099,-3.0153,-3.0184,-3.0227,-3.0279,-3.0351,-3.0383,-3.0418,-3.043,-3.0433,-3.0434,-3.0434,-3.0431,-3.0439,-3.0427,-3.0427,-3.0427,-3.0427,-3.0428,0,-2.9765,-2.9804,-2.9842,-2.9901,-2.9935,-2.9966,-3.0015,-3.0041,-3.0078,-3.0124,-3.0163,-3.0213,-3.0257,-3.0312,-3.036,-3.0377,-3.0394,-3.0387,-3.0387,-3.0394,-3.0416,-3.041,-3.0373,-3.0373,-3.0373,-3.0373,-3.0373,-3.0373,-2.9751,-2.9786,-2.9819,-2.9874,-2.9912,-2.9956,-2.9982,-3.0019,-3.0056,-3.0111,-3.0149,-3.0185,-3.0235,-3.0287,-3.0329,-3.0344,-3.036,-3.0349,-3.0368,-3.0388,-3.0392,-3.0397,-3.0391,-3.0352,-3.0352,-3.0344,-3.0344,-3.0344]}]]